Time,TemperatureF,DewpointF,PressureIn,WindDirection,WindDirectionDegrees,WindSpeedMPH,WindSpeedGustMPH,Humidity,HourlyPrecipIn,Conditions,Clouds,dailyrainin,SoftwareType,DateUTC
2013-02-12 00:00:00,34.5,33.7,29.60,West,269,2.0,2.0,97,0.00,,,0.49,Wunderground v.1.15,2013-02-12 05:00:00,
2013-02-12 00:05:00,34.3,33.5,29.59,West,269,2.0,9.0,97,0.00,,,0.00,Wunderground v.1.15,2013-02-12 05:05:00,
2013-02-12 00:10:00,34.2,33.4,29.59,West,269,2.0,2.0,97,0.00,,,0.00,Wunderground v.1.15,2013-02-12 05:10:00,
2013-02-12 00:15:00,34.0,33.2,29.59,SW,228,3.0,4.0,97,0.00,,,0.00,Wunderground v.1.15,2013-02-12 05:15:00,
2013-02-12 00:20:00,33.9,33.1,29.59,WSW,241,3.0,9.0,97,0.00,,,0.00,Wunderground v.1.15,2013-02-12 05:20:00,
2013-02-12 00:25:00,33.8,33.0,29.59,WSW,241,3.0,9.0,97,0.00,,,0.00,Wunderground v.1.15,2013-02-12 05:25:00,
2013-02-12 00:30:00,33.3,32.3,29.59,WSW,241,2.0,9.0,96,0.00,,,0.00,Wunderground v.1.15,2013-02-12 05:30:00,
2013-02-12 00:35:00,33.5,32.7,29.60,SW,223,3.0,9.0,97,0.00,,,0.00,Wunderground v.1.15,2013-02-12 05:35:00,
2013-02-12 00:45:00,33.5,32.7,29.60,SSW,213,2.0,9.0,97,0.00,,,0.00,Wunderground v.1.15,2013-02-12 05:45:00,
2013-02-12 00:50:00,33.5,32.7,29.59,NW,309,1.0,9.0,97,0.00,,,0.00,Wunderground v.1.15,2013-02-12 05:50:00,
2013-02-12 00:55:00,33.5,32.7,29.59,NW,309,1.0,9.0,97,0.00,,,0.00,Wunderground v.1.15,2013-02-12 05:55:00,
2013-02-12 01:00:00,33.5,32.7,29.59,NW,309,1.0,9.0,97,0.00,,,0.00,Wunderground v.1.15,2013-02-12 06:00:00,
2013-02-12 01:05:00,33.5,32.7,29.59,WNW,286,3.0,9.0,97,0.00,,,0.00,Wunderground v.1.15,2013-02-12 06:05:00,
2013-02-12 01:15:00,33.4,32.6,29.58,NNE,27,3.0,9.0,97,0.00,,,0.00,Wunderground v.1.15,2013-02-12 06:15:00,
2013-02-12 01:20:00,33.4,32.6,29.58,NNE,32,2.0,2.0,97,0.00,,,0.00,Wunderground v.1.15,2013-02-12 06:20:00,
2013-02-12 01:25:00,33.4,32.6,29.58,NNE,32,1.0,9.0,97,0.00,,,0.00,Wunderground v.1.15,2013-02-12 06:25:00,
2013-02-12 01:30:00,33.4,32.6,29.58,NE,34,0.0,9.0,97,0.00,,,0.00,Wunderground v.1.15,2013-02-12 06:30:00,
2013-02-12 01:35:00,33.4,32.6,29.58,NE,34,0.0,9.0,97,0.00,,,0.00,Wunderground v.1.15,2013-02-12 06:35:00,
2013-02-12 01:40:00,33.5,32.7,29.58,NE,34,0.0,9.0,97,0.00,,,0.00,Wunderground v.1.15,2013-02-12 06:40:00,
2013-02-12 01:50:00,33.4,32.6,29.58,NE,34,0.0,9.0,97,0.00,,,0.00,Wunderground v.1.15,2013-02-12 06:50:00,
2013-02-12 01:55:00,33.3,32.5,29.57,NE,34,0.0,9.0,97,0.00,,,0.00,Wunderground v.1.15,2013-02-12 06:55:00,
2013-02-12 02:00:00,33.3,32.5,29.57,NE,34,0.0,9.0,97,0.00,,,0.00,Wunderground v.1.15,2013-02-12 07:00:00,
2013-02-12 02:05:00,33.3,32.5,29.57,NE,34,0.0,9.0,97,0.00,,,0.00,Wunderground v.1.15,2013-02-12 07:05:00,
2013-02-12 02:10:00,33.4,32.6,29.56,NE,34,0.0,9.0,97,0.00,,,0.00,Wunderground v.1.15,2013-02-12 07:10:00,
2013-02-12 02:20:00,33.4,32.4,29.54,NE,34,0.0,9.0,96,0.00,,,0.00,Wunderground v.1.15,2013-02-12 07:20:00,
2013-02-12 02:25:00,33.3,32.3,29.54,NE,34,0.0,9.0,96,0.00,,,0.00,Wunderground v.1.15,2013-02-12 07:25:00,
2013-02-12 02:30:00,33.0,32.2,29.53,NE,34,0.0,9.0,97,0.00,,,0.00,Wunderground v.1.15,2013-02-12 07:30:00,
2013-02-12 02:35:00,32.9,32.1,29.53,NE,34,0.0,9.0,97,0.00,,,0.00,Wunderground v.1.15,2013-02-12 07:35:00,
2013-02-12 02:40:00,32.5,31.7,29.54,NE,34,1.0,9.0,97,0.00,,,0.00,Wunderground v.1.15,2013-02-12 07:40:00,
2013-02-12 02:45:00,32.4,31.6,29.55,West,277,2.0,9.0,97,0.00,,,0.00,Wunderground v.1.15,2013-02-12 07:45:00,
2013-02-12 02:55:00,32.5,31.7,29.55,WSW,244,3.0,9.0,97,0.00,,,0.00,Wunderground v.1.15,2013-02-12 07:55:00,
2013-02-12 03:00:00,32.5,31.7,29.55,WSW,244,2.0,2.0,97,0.00,,,0.00,Wunderground v.1.15,2013-02-12 08:00:00,
2013-02-12 03:05:00,32.5,31.7,29.56,WSW,244,2.0,3.0,97,0.00,,,0.00,Wunderground v.1.15,2013-02-12 08:05:00,
2013-02-12 03:10:00,32.6,31.8,29.56,WSW,244,2.0,9.0,97,0.00,,,0.00,Wunderground v.1.15,2013-02-12 08:10:00,
2013-02-12 03:15:00,32.6,31.8,29.56,WSW,248,2.0,9.0,97,0.00,,,0.00,Wunderground v.1.15,2013-02-12 08:15:00,
2013-02-12 03:25:00,32.7,31.9,29.57,WSW,238,5.0,9.0,97,0.00,,,0.00,Wunderground v.1.15,2013-02-12 08:25:00,
2013-02-12 03:30:00,32.8,32.0,29.57,SW,227,8.0,8.0,97,0.00,,,0.00,Wunderground v.1.15,2013-02-12 08:30:00,
2013-02-12 03:35:00,32.7,31.9,29.57,SW,224,9.0,9.0,97,0.00,,,0.00,Wunderground v.1.15,2013-02-12 08:35:00,
2013-02-12 03:40:00,32.7,31.9,29.56,WSW,254,7.0,7.0,97,0.00,,,0.00,Wunderground v.1.15,2013-02-12 08:40:00,
2013-02-12 03:45:00,32.7,31.9,29.56,SW,230,6.0,9.0,97,0.00,,,0.00,Wunderground v.1.15,2013-02-12 08:45:00,
2013-02-12 03:50:00,32.8,32.0,29.56,SW,227,4.0,4.0,97,0.00,,,0.00,Wunderground v.1.15,2013-02-12 08:50:00,
2013-02-12 03:55:00,32.8,32.0,29.55,SW,218,2.0,9.0,97,0.00,,,0.00,Wunderground v.1.15,2013-02-12 08:55:00,
2013-02-12 04:00:00,32.8,32.0,29.55,WSW,256,1.0,9.0,97,0.00,,,0.00,Wunderground v.1.15,2013-02-12 09:00:00,
2013-02-12 04:05:00,32.8,32.0,29.55,WSW,256,1.0,9.0,97,0.00,,,0.00,Wunderground v.1.15,2013-02-12 09:05:00,
2013-02-12 04:10:00,32.8,32.0,29.55,West,265,2.0,9.0,97,0.00,,,0.00,Wunderground v.1.15,2013-02-12 09:10:00,
2013-02-12 04:15:00,32.8,32.0,29.55,West,275,4.0,9.0,97,0.00,,,0.00,Wunderground v.1.15,2013-02-12 09:15:00,
2013-02-12 04:20:00,32.8,32.0,29.55,West,280,4.0,9.0,97,0.00,,,0.00,Wunderground v.1.15,2013-02-12 09:20:00,
2013-02-12 04:30:00,32.8,32.0,29.54,WNW,285,3.0,3.0,97,0.00,,,0.00,Wunderground v.1.15,2013-02-12 09:30:00,
2013-02-12 04:35:00,32.9,32.1,29.55,NW,306,3.0,9.0,97,0.00,,,0.00,Wunderground v.1.15,2013-02-12 09:35:00,
2013-02-12 04:40:00,32.9,32.1,29.55,West,269,3.0,3.0,97,0.00,,,0.00,Wunderground v.1.15,2013-02-12 09:40:00,
2013-02-12 04:45:00,32.9,32.1,29.55,West,269,3.0,9.0,97,0.00,,,0.00,Wunderground v.1.15,2013-02-12 09:45:00,
2013-02-12 04:50:00,32.9,32.1,29.56,West,271,3.0,9.0,97,0.00,,,0.00,Wunderground v.1.15,2013-02-12 09:50:00,
2013-02-12 04:55:00,32.9,32.1,29.56,West,265,4.0,9.0,97,0.00,,,0.00,Wunderground v.1.15,2013-02-12 09:55:00,
2013-02-12 05:05:00,32.9,32.1,29.56,WSW,256,4.0,6.0,97,0.00,,,0.00,Wunderground v.1.15,2013-02-12 10:05:00,
2013-02-12 05:10:00,33.0,32.2,29.56,West,261,5.0,5.0,97,0.00,,,0.00,Wunderground v.1.15,2013-02-12 10:10:00,
2013-02-12 05:15:00,33.0,32.2,29.57,West,261,5.0,9.0,97,0.00,,,0.00,Wunderground v.1.15,2013-02-12 10:15:00,
2013-02-12 05:20:00,32.9,32.1,29.57,West,273,4.0,9.0,97,0.00,,,0.00,Wunderground v.1.15,2013-02-12 10:20:00,
2013-02-12 05:25:00,32.9,32.1,29.56,West,281,5.0,9.0,97,0.00,,,0.00,Wunderground v.1.15,2013-02-12 10:25:00,
2013-02-12 05:30:00,32.9,32.1,29.57,West,270,4.0,9.0,97,0.00,,,0.00,Wunderground v.1.15,2013-02-12 10:30:00,
2013-02-12 05:35:00,32.9,32.1,29.57,West,271,4.0,9.0,97,0.00,,,0.00,Wunderground v.1.15,2013-02-12 10:35:00,
2013-02-12 05:40:00,32.8,32.0,29.56,WNW,284,5.0,5.0,97,0.00,,,0.00,Wunderground v.1.15,2013-02-12 10:40:00,
2013-02-12 05:45:00,32.8,32.0,29.56,West,273,4.0,9.0,97,0.00,,,0.00,Wunderground v.1.15,2013-02-12 10:45:00,
2013-02-12 05:50:00,32.6,31.8,29.57,WSW,258,4.0,9.0,97,0.00,,,0.00,Wunderground v.1.15,2013-02-12 10:50:00,
2013-02-12 05:55:00,32.6,31.8,29.57,WSW,251,4.0,9.0,97,0.00,,,0.00,Wunderground v.1.15,2013-02-12 10:55:00,
2013-02-12 06:00:00,32.5,31.7,29.57,West,272,4.0,4.0,97,0.00,,,0.00,Wunderground v.1.15,2013-02-12 11:00:00,
2013-02-12 06:10:00,32.5,31.7,29.57,West,280,3.0,9.0,97,0.00,,,0.00,Wunderground v.1.15,2013-02-12 11:10:00,
2013-02-12 06:15:00,32.6,31.8,29.57,SW,235,3.0,9.0,97,0.00,,,0.00,Wunderground v.1.15,2013-02-12 11:15:00,
2013-02-12 06:20:00,32.6,31.8,29.57,West,273,2.0,2.0,97,0.00,,,0.00,Wunderground v.1.15,2013-02-12 11:20:00,
2013-02-12 06:25:00,32.6,31.8,29.57,SW,215,2.0,9.0,97,0.00,,,0.00,Wunderground v.1.15,2013-02-12 11:25:00,
2013-02-12 06:30:00,32.7,31.9,29.57,SW,215,1.0,1.0,97,0.00,,,0.00,Wunderground v.1.15,2013-02-12 11:30:00,
2013-02-12 06:40:00,32.9,32.1,29.58,SW,215,0.0,9.0,97,0.00,,,0.00,Wunderground v.1.15,2013-02-12 11:40:00,
2013-02-12 06:45:00,32.9,32.1,29.58,SW,215,1.0,9.0,97,0.00,,,0.00,Wunderground v.1.15,2013-02-12 11:45:00,
2013-02-12 06:50:00,33.0,32.2,29.58,WSW,257,2.0,9.0,97,0.00,,,0.00,Wunderground v.1.15,2013-02-12 11:50:00,
2013-02-12 06:55:00,33.1,32.3,29.58,SW,227,2.0,9.0,97,0.00,,,0.00,Wunderground v.1.15,2013-02-12 11:55:00,
2013-02-12 07:00:00,33.2,32.2,29.58,WNW,287,3.0,3.0,96,0.00,,,0.00,Wunderground v.1.15,2013-02-12 12:00:00,
2013-02-12 07:05:00,33.2,32.2,29.58,West,259,3.0,4.0,96,0.00,,,0.00,Wunderground v.1.15,2013-02-12 12:05:00,
2013-02-12 07:15:00,33.5,32.5,29.59,SW,228,4.0,9.0,96,0.00,,,0.00,Wunderground v.1.15,2013-02-12 12:15:00,
2013-02-12 07:20:00,33.5,32.5,29.58,SW,235,4.0,4.0,96,0.00,,,0.00,Wunderground v.1.15,2013-02-12 12:20:00,
2013-02-12 07:25:00,33.6,32.6,29.59,SW,235,2.0,9.0,96,0.00,,,0.00,Wunderground v.1.15,2013-02-12 12:25:00,
2013-02-12 07:30:00,33.8,32.8,29.59,WSW,244,2.0,9.0,96,0.00,,,0.00,Wunderground v.1.15,2013-02-12 12:30:00,
2013-02-12 07:35:00,33.8,32.5,29.59,SW,229,3.0,9.0,95,0.00,,,0.00,Wunderground v.1.15,2013-02-12 12:35:00,
2013-02-12 07:45:00,34.0,32.7,29.59,SW,228,4.0,9.0,95,0.00,,,0.00,Wunderground v.1.15,2013-02-12 12:45:00,
2013-02-12 07:50:00,34.1,32.8,29.59,SSW,212,4.0,9.0,95,0.00,,,0.00,Wunderground v.1.15,2013-02-12 12:50:00,
2013-02-12 07:55:00,34.1,32.8,29.59,SW,232,3.0,9.0,95,0.00,,,0.00,Wunderground v.1.15,2013-02-12 12:55:00,
2013-02-12 08:00:00,34.2,32.7,29.59,WSW,245,3.0,9.0,94,0.00,,,0.00,Wunderground v.1.15,2013-02-12 13:00:00,
2013-02-12 08:05:00,34.5,33.0,29.59,SW,215,4.0,9.0,94,0.00,,,0.00,Wunderground v.1.15,2013-02-12 13:05:00,
2013-02-12 08:10:00,34.7,33.2,29.59,SSW,211,3.0,9.0,94,0.00,,,0.00,Wunderground v.1.15,2013-02-12 13:10:00,
2013-02-12 08:20:00,35.2,33.4,29.59,West,261,4.0,9.0,93,0.00,,,0.00,Wunderground v.1.15,2013-02-12 13:20:00,
2013-02-12 08:25:00,35.3,33.5,29.59,WSW,240,5.0,9.0,93,0.00,,,0.00,Wunderground v.1.15,2013-02-12 13:25:00,
2013-02-12 08:30:00,35.5,33.7,29.59,WSW,254,5.0,9.0,93,0.00,,,0.00,Wunderground v.1.15,2013-02-12 13:30:00,
2013-02-12 08:35:00,35.7,33.6,29.59,SW,233,5.0,9.0,92,0.00,,,0.00,Wunderground v.1.15,2013-02-12 13:35:00,
2013-02-12 08:40:00,35.8,33.4,29.59,West,265,6.0,6.0,91,0.00,,,0.00,Wunderground v.1.15,2013-02-12 13:40:00,
2013-02-12 08:50:00,36.4,34.0,29.59,WSW,252,4.0,10.0,91,0.00,,,0.00,Wunderground v.1.15,2013-02-12 13:50:00,
2013-02-12 08:55:00,36.7,34.0,29.59,SSW,209,5.0,10.0,90,0.00,,,0.00,Wunderground v.1.15,2013-02-12 13:55:00,
2013-02-12 09:00:00,37.0,34.1,29.60,West,261,5.0,9.0,89,0.00,,,0.00,Wunderground v.1.15,2013-02-12 14:00:00,
2013-02-12 09:05:00,37.2,34.3,29.59,WNW,286,5.0,9.0,89,0.00,,,0.00,Wunderground v.1.15,2013-02-12 14:05:00,
2013-02-12 09:10:00,37.1,33.9,29.60,WNW,292,5.0,9.0,88,0.00,,,0.00,Wunderground v.1.15,2013-02-12 14:10:00,
2013-02-12 09:15:00,37.1,33.6,29.59,SW,236,6.0,9.0,87,0.00,,,0.00,Wunderground v.1.15,2013-02-12 14:15:00,
2013-02-12 09:25:00,36.9,33.4,29.60,WSW,238,6.0,6.0,87,0.00,,,0.00,Wunderground v.1.15,2013-02-12 14:25:00,
2013-02-12 09:30:00,36.9,33.4,29.60,WSW,238,6.0,6.0,87,0.00,,,0.00,Wunderground v.1.15,2013-02-12 14:30:00,
2013-02-12 09:35:00,36.8,33.3,29.60,SW,234,5.0,9.0,87,0.00,,,0.00,Wunderground v.1.15,2013-02-12 14:35:00,
2013-02-12 09:45:00,36.9,33.1,29.60,WSW,251,6.0,9.0,86,0.00,,,0.00,Wunderground v.1.15,2013-02-12 14:45:00,
2013-02-12 09:50:00,37.0,33.5,29.60,SW,234,6.0,6.0,87,0.00,,,0.00,Wunderground v.1.15,2013-02-12 14:50:00,
2013-02-12 09:55:00,37.4,33.9,29.60,SW,227,5.0,9.0,87,0.00,,,0.00,Wunderground v.1.15,2013-02-12 14:55:00,
2013-02-12 10:05:00,37.9,33.8,29.60,SSW,208,5.0,5.0,85,0.00,,,0.00,Wunderground v.1.15,2013-02-12 15:05:00,
2013-02-12 10:10:00,37.9,33.8,29.60,WSW,240,5.0,9.0,85,0.00,,,0.00,Wunderground v.1.15,2013-02-12 15:10:00,
2013-02-12 10:15:00,37.9,33.8,29.60,WSW,249,5.0,9.0,85,0.00,,,0.00,Wunderground v.1.15,2013-02-12 15:15:00,
2013-02-12 10:20:00,38.0,33.6,29.60,SW,225,5.0,5.0,84,0.00,,,0.00,Wunderground v.1.15,2013-02-12 15:20:00,
2013-02-12 10:30:00,38.2,33.8,29.61,WNW,286,5.0,5.0,84,0.00,,,0.00,Wunderground v.1.15,2013-02-12 15:30:00,
2013-02-12 10:35:00,38.3,33.6,29.61,WSW,258,5.0,9.0,83,0.00,,,0.00,Wunderground v.1.15,2013-02-12 15:35:00,
2013-02-12 10:40:00,38.4,33.7,29.61,WSW,257,6.0,6.0,83,0.00,,,0.00,Wunderground v.1.15,2013-02-12 15:40:00,
2013-02-12 10:45:00,38.5,33.8,29.61,WSW,257,7.0,7.0,83,0.00,,,0.00,Wunderground v.1.15,2013-02-12 15:45:00,
2013-02-12 10:50:00,38.6,33.6,29.61,WSW,244,5.0,5.0,82,0.00,,,0.00,Wunderground v.1.15,2013-02-12 15:50:00,
2013-02-12 10:55:00,38.7,33.7,29.61,West,265,5.0,6.0,82,0.00,,,0.00,Wunderground v.1.15,2013-02-12 15:55:00,
2013-02-12 11:05:00,39.2,33.9,29.61,SSW,209,6.0,9.0,81,0.00,,,0.00,Wunderground v.1.15,2013-02-12 16:05:00,
2013-02-12 11:10:00,39.7,34.3,29.61,SW,221,5.0,9.0,81,0.00,,,0.00,Wunderground v.1.15,2013-02-12 16:10:00,
2013-02-12 11:15:00,39.8,33.8,29.61,West,267,6.0,9.0,79,0.00,,,0.00,Wunderground v.1.15,2013-02-12 16:15:00,
2013-02-12 11:20:00,40.1,34.1,29.61,SW,231,6.0,9.0,79,0.00,,,0.00,Wunderground v.1.15,2013-02-12 16:20:00,
2013-02-12 11:25:00,40.6,34.0,29.61,SW,225,7.0,9.0,77,0.00,,,0.00,Wunderground v.1.15,2013-02-12 16:25:00,
2013-02-12 11:35:00,40.8,33.8,29.61,SW,225,9.0,9.0,76,0.00,,,0.00,Wunderground v.1.15,2013-02-12 16:35:00,
2013-02-12 11:40:00,41.1,33.8,29.60,WSW,250,8.0,8.0,75,0.00,,,0.00,Wunderground v.1.15,2013-02-12 16:40:00,
2013-02-12 11:45:00,41.6,34.3,29.60,West,262,7.0,14.0,75,0.00,,,0.00,Wunderground v.1.15,2013-02-12 16:45:00,
2013-02-12 11:50:00,41.4,33.7,29.60,WSW,257,8.0,8.0,74,0.00,,,0.00,Wunderground v.1.15,2013-02-12 16:50:00,
2013-02-12 11:55:00,41.7,33.7,29.60,SW,233,8.0,9.0,73,0.00,,,0.00,Wunderground v.1.15,2013-02-12 16:55:00,
2013-02-12 12:00:00,41.9,33.9,29.60,NW,319,8.0,8.0,73,0.00,,,0.00,Wunderground v.1.15,2013-02-12 17:00:00,
2013-02-12 12:10:00,41.9,33.2,29.60,WSW,241,8.0,9.0,71,0.00,,,0.00,Wunderground v.1.15,2013-02-12 17:10:00,
2013-02-12 12:15:00,42.0,33.6,29.60,WSW,256,7.0,9.0,72,0.00,,,0.00,Wunderground v.1.15,2013-02-12 17:15:00,
2013-02-12 12:20:00,41.9,33.2,29.60,WSW,255,8.0,12.0,71,0.00,,,0.00,Wunderground v.1.15,2013-02-12 17:20:00,
2013-02-12 12:25:00,41.9,33.2,29.60,SW,235,9.0,12.0,71,0.00,,,0.00,Wunderground v.1.15,2013-02-12 17:25:00,
2013-02-12 12:30:00,42.1,33.4,29.60,SW,223,9.0,9.0,71,0.00,,,0.00,Wunderground v.1.15,2013-02-12 17:30:00,
2013-02-12 12:40:00,42.6,33.5,29.60,WNW,292,5.0,9.0,70,0.00,,,0.00,Wunderground v.1.15,2013-02-12 17:40:00,